SCP
-0 -0 -0 -0 -0 -0 -0 -0 -0 -0 0 -0 -0 -0 0 0 -0 -0 0 0 0 0 0 0 -0 -0 -0 -0 0 0 0 0 0 -0 -0 0 -0 -0 -0 -0 -0 -0 -0 -0 -0
-0 -0 -0 -0 -0 -0 -0 -0 -0 -0 0 -0 -0 -0 -0 0 0 0 0 0 0 0 0 -0 0 -0 -0 -0 0 -0 -0 0 0 0 -0 -0 -0 0 -0 0 -0 -0 -0 -0 -0
-0 -0 -0 -0 -0 -0 0 -0 -0 -0 -0 -0 -0 -0 0 0 0 0 0 -0 0 0 0 0 0 0 0 0 0 0 -0 0 0 0 0 0 0 0 -0 -0 -0 -0 -0 -0 -0
0 0 0 -0 -0 -0 -0 -0 -0 -0 -0 0 -0 -0 0 0 0 0 0 0 0 0 0 0 0 0 0 0 -0 -0 0 0 0 0 -0 0 -0 0 -0 -0 -0 -0 -0 0 -0
0 0 0 -0 -0 -0 -0 -0 -0 -0 -0 0 0 0 0 0 0 0 0 0 0 0 0 0 0 0 -0 0 0 -0 -0 0 0 0 -0 -0 -0 0 -0 -0 -0 -0 -0 -0 -0
0 0 0 0 -0 -0 -0 -0 -0 -0 -0 0 0 0 0 0 0 -0 0 0 0 0 0 0 0 0 -0 0 -0 0 -0 -0 -0 -0 0 -0 0 0 0 -0 -0 -0 0 -0 -0
-0 -0 -0 -0 -0 -0 -0 -0 -0 -0 -0 0 0 0 0 0 0 -0 -0 0 0 0 0 0 0 0 0 0 0 0 -0 -0 0 0 -0 0 0 0 0 -0 -0 0 0 -0 -0
-0 -0 -0 -0 -0 -0 -0 -0 -0 -0 -0 -0 0 0 0 0 0 0 0 0 0 0 0 0 0 0 0 0 0 0 0 0 -0 -0 0 0 0 0 0 0 -0 0 0 -0 -0
-0 -0 -0 -0 -0 -0 -0 -0 -0 -0 -0 -0 0 0 0 0 0 0 0 0 0 0 0 0 0 0 0 0 0 0 0 0 -0 0 0 0 0 0 0 0 0 -0 -0 -0 -0
-0 -0 -0 -0 -0 -0 -0 -0 -0 -0 -0 -0 -0 0 -0 -0 0 -0 0 0 0 0 0 0 0 0 0 0 0 0 0 0 0 0 0 0 0 0 0 0 0 0 0 0 -0
-0 -0 -0 -0 -0 -0 -0 0 0 -0 0 0 0 0 -0 -0 -0 0 0 0 0 0 0 0 0 0 0 0 0 0 0 0 0 0 0 0 0 -0 -0 0 0 0 0 0 0
-0 -0 -0 -0 -0 -0 -0 0 0 0 -0 -0 -0 -0 -0 0 0 0 0 0 0 0 0 0 0 0 0 0 0 0 0 0 0 0 0 0 0 0 0 -0 0 0 0 0 0
-0 -0 -0 -0 -0 -0 0 0 0 -0 0 -0 -0 -0 -0 0 -0 0 0 0 0 0 0 0 0 0 0 0 0 0 -0 -0 0 0 0 0 0 -0 -0 -0 0 0 0 0 0
-0 -0 -0 0 -0 -0 0 0 0 0 0 0 0 0 0 -0 -0 0 0 -0 0 0 0 0 0 0 0 0 0 0 -0 0 -0 -0 -0 0 0 -0 -0 -0 0 0 0 0 0
-0 -0 -0 -0 -0 0 0 -0 -0 0 0 0 0 0 -0 -0 0 0 0 0 0 0 0 0 0 0 0 0 0 0 0 -0 0 0 0 0 0 -0 -0 -0 0 -0 0 0 0
-0 -0 -0 -0 -0 0 -0 -0 0 -0 -0 -0 0 -0 0 -0 -0 0 0 0 0 0 0 0 0 0 0 0 0 0 -0 -0 0 -0 0 0 0 -0 -0 -0 -0 -0 -0 0 -0
-0 -0 -0 -0 0 0 -0 -0 0 0 0 0 0 -0 0 0 -0 -0 0 0 0 0 0 0 0 0 0 0 0 0 -0 0 -0 0 0 -0 0 0 -0 -0 -0 -0 -0 -0 0
0 0 0 0 0 -0 -0 0 -0 0 0 -0 -0 0 -0 -0 -0 -0 -0 0 0 0 0 0 0 0 0 0 0 0 0 0 0 0 0 0 0 -0 -0 0 0 -0 -0 -0 -0
-0 -0 0 0 -0 0 0 -0 0 0 -0 -0 0 0 0 0 0 -0 0 0 0 0 0 0 0 0 0 0 0 0 0 0 0 0 0 0 0 0 -0 -0 0 0 0 -0 -0
-0 -0 0 -0 -0 0 0 -0 0 -0 0 -0 -0 0 0 -0 0 0 0 0 0 0 -0 0 0 0 0 0 0 0 0 0 0 0 0 0 0 -0 0 0 0 0 -0 0 -0
-0 0 0 -0 -0 0 -0 0 0 0 0 0 -0 0 0 0 -0 0 0 0 0 0 0 0 0 0 0 0 0 0 0 0 0 0 0 0 0 0 -0 0 0 0 0 -0 0
-0 0 -0 -0 0 -0 0 0 0 0 0 0 -0 -0 0 0 0 -0 0 0 0 0 0 0 0 0 0 0 0 0 0 0 0 0 0 0 -0 0 -0 0 0 0 0 0 -0
-0 -0 -0 -0 0 -0 0 -0 0 -0 0 0 -0 -0 0 -0 -0 -0 0 0 0 -0 0 0 0 0 0 0 0 0 0 0 0 0 0 0 0 0 0 0 0 0 0 -0 -0
-0 0 -0 0 -0 -0 -0 0 0 0 0 0 0 0 -0 -0 0 0 0 0 0 0 0 0 0 0 -0 0 0 0 0 0 0 0 0 0 0 0 0 0 0 0 -0 -0 -0
-0 -0 -0 0 0 -0 0 0 0 0 -0 -0 -0 0 0 0 0 0 0 0 -0 0 0 0 0 0 -0 0 0 0 0 0 0 0 0 -0 0 -0 0 0 0 0 -0 0 0
-0 -0 0 0 -0 0 0 0 0 0 0 0 0 0 0 -0 0 0 -0 0 0 0 0 0 0 0 0 0 0 0 0 0 0 0 0 0 0 -0 0 0 0 0 -0 0 0
-0 -0 -0 0 -0 -0 0 -0 0 0 0 0 -0 0 0 0 0 0 0 0 -0 -0 0 0 0 0 0 0 0 0 0 0 0 0 -0 0 0 0 0 0 0 0 0 0 0
Wind_Speed_500mb
26 28 27 24 21 17 16 15 14 13 12 13 14 15 17 18 22 29 35 17 21 17 11 20 26 21 17 19 11 18 7 13 21 25 27 32 22 34 45 59 51 36 55 76 68
25 26 27 25 22 18 16 15 13 12 12 12 13 15 16 18 24 40 26 26 28 14 19 27 25 20 38 21 17 8 5 6 12 8 10 25 41 32 34 18 55 62 68 66 75
27 28 29 26 23 20 15 14 12 11 11 11 12 13 14 17 21 18 15 33 26 25 21 25 30 25 32 20 12 11 13 10 24 32 38 16 34 17 57 36 67 59 75 67 65
26 29 29 26 22 21 17 14 12 11 11 10 11 11 12 11 1 8 6 22 22 20 29 33 36 42 31 17 33 23 37 48 17 35 27 8 13 11 31 64 71 62 67 62 60
25 26 26 23 21 19 18 15 11 11 11 10 10 10 10 9 22 8 15 14 31 28 35 32 32 39 24 5 19 16 45 53 32 38 29 35 33 13 57 68 59 63 55 56 50
23 25 24 21 19 18 19 17 14 11 11 11 9 9 10 10 6 18 18 18 32 34 39 31 26 34 28 7 28 16 54 54 47 27 13 16 9 17 41 68 55 48 46 54 59
22 23 22 19 16 17 17 17 14 11 10 10 9 11 17 33 5 15 15 12 26 28 31 24 30 37 31 4 31 15 41 25 20 13 10 15 9 11 27 57 58 44 43 60 55
21 22 22 17 16 17 16 15 14 10 6 2 2 8 18 11 23 12 20 6 22 19 29 26 25 33 23 23 6 19 13 12 13 22 12 2 7 9 14 43 53 50 46 64 63
19 20 20 15 15 16 17 15 12 12 6 3 6 8 19 9 25 23 29 25 14 24 26 29 33 33 24 9 9 7 9 8 20 23 14 9 7 21 6 24 35 50 41 67 57
17 17 18 15 15 17 20 18 15 10 4 6 10 17 21 33 20 29 31 29 31 29 33 33 5 4 7 5 10 17 13 10 17 13 16 15 12 13 16 7 3 13 52 56 68
18 17 18 17 16 20 22 22 11 1 16 22 12 25 31 6 18 20 23 27 29 23 12 17 5 14 22 27 28 12 15 14 15 21 8 15 13 26 23 9 9 12 53 48 63
17 17 18 18 15 16 21 21 28 31 22 48 39 39 45 30 11 22 27 19 19 14 20 9 18 24 27 32 22 11 5 14 17 18 10 10 12 13 15 8 20 16 45 42 30
18 18 18 18 12 11 18 15 15 26 16 27 33 25 22 15 18 29 35 37 17 17 18 17 25 33 33 27 2 18 3 17 15 7 3 16 7 12 14 12 18 28 28 45 40
21 20 18 17 12 15 28 28 20 24 6 8 21 17 34 17 24 38 33 33 15 21 24 19 40 27 26 18 13 10 33 34 36 17 8 5 2 15 15 26 21 30 36 38 47
25 21 17 16 20 19 22 23 20 20 7 12 9 17 17 24 15 35 28 42 25 16 13 23 22 20 24 29 14 20 17 30 20 10 19 9 14 9 30 37 35 38 50 58 53
30 23 14 19 17 10 23 25 28 5 8 9 18 11 12 28 35 36 24 32 35 23 17 22 37 15 18 25 21 20 29 32 18 6 4 25 19 9 27 57 48 50 58 65 64
30 23 16 20 13 12 18 26 4 5 6 8 9 18 20 9 16 21 18 16 12 5 13 21 23 17 8 8 7 17 35 8 5 4 5 17 20 25 46 38 48 48 63 80 80
26 19 18 13 12 7 22 5 3 14 22 30 33 20 11 9 21 21 16 18 24 22 11 11 13 2 8 9 16 16 14 8 9 1 10 8 12 14 6 2 29 52 57 71 87
17 16 17 11 18 6 17 4 6 8 24 25 16 9 8 19 17 13 17 20 23 25 8 7 18 11 17 11 9 8 10 21 15 10 3 6 2 7 36 26 48 17 41 64 80
15 11 22 9 11 8 6 11 13 10 20 7 7 10 4 18 13 9 14 23 28 21 13 9 11 11 18 18 19 7 7 7 4 8 8 1 9 10 5 10 5 23 40 53 74
14 10 17 24 11 17 8 18 4 18 7 8 7 3 9 4 22 23 20 32 8 9 19 13 6 15 11 12 15 5 9 5 5 5 10 5 6 14 18 20 22 29 22 38 70
8 7 31 26 16 17 10 11 13 8 8 8 11 4 3 12 11 3 9 4 63 37 10 12 6 10 8 3 14 15 14 15 9 16 5 8 6 16 28 42 45 42 51 59 65
19 17 23 22 8 13 16 7 16 20 16 19 7 7 8 8 9 12 4 20 35 15 6 10 10 8 23 8 14 6 14 10 9 5 11 1 4 11 9 19 19 20 30 41 58
10 6 17 30 43 27 19 1 10 12 12 12 15 21 15 17 9 6 4 10 10 16 22 8 5 6 14 17 7 16 30 29 10 1 7 7 10 5 13 4 24 33 26 33 52
7 12 33 10 14 24 9 10 14 8 3 8 2 14 7 9 15 7 9 9 28 8 13 8 6 10 11 7 6 19 27 35 17 15 8 13 11 11 2 19 6 44 46 32 64
9 29 36 37 8 15 7 8 10 15 20 13 11 12 15 10 3 12 8 1 5 13 9 6 4 13 14 8 4 9 25 27 31 25 30 31 15 11 12 19 36 39 46 44 20
13 27 14 27 13 5 2 12 15 9 5 18 19 15 21 20 22 20 31 35 20 7 7 7 7 8 9 18 7 3 11 20 38 23 18 13 8 20 24 33 39 39 36 35 14
Wind_Direction_500mb
354 351 346 341 333 323 311 301 298 299 296 287 287 284 282 279 269 259 243 213 210 225 205 166 171 188 204 208 150 113 50 333 329 75 144 138 107 114 115 135 131 127 137 137 137
354 352 347 341 337 329 316 310 305 300 301 291 282 283 287 285 275 261 252 205 222 231 204 179 212 226 223 218 183 94 79 240 276 296 162 125 122 147 114 187 128 135 124 130 140
353 353 349 344 339 337 328 324 311 304 301 295 282 282 288 290 301 266 259 217 202 227 214 197 221 222 224 215 158 106 174 187 297 297 288 104 153 179 144 133 139 146 132 144 150
356 353 351 349 346 346 343 334 319 307 300 294 283 279 279 276 2 315 301 195 200 222 201 205 244 251 235 191 219 142 204 183 207 274 274 341 119 14 146 132 137 141 143 150 145
358 358 356 357 358 356 352 344 330 310 299 289 277 269 269 272 261 283 319 234 215 216 195 200 243 245 246 198 48 135 168 180 170 208 109 99 43 65 118 127 139 147 146 153 155
359 1 1 3 10 13 5 355 336 317 298 285 269 246 230 255 297 294 289 240 219 208 195 203 237 243 278 117 89 238 174 182 180 129 99 91 41 107 126 132 139 156 161 152 148
359 2 0 5 13 9 6 5 359 342 316 295 278 246 238 229 180 315 320 243 212 204 196 203 239 263 300 27 149 121 134 112 133 103 111 87 19 90 134 139 149 164 169 148 146
356 -0 360 2 359 359 357 359 7 2 351 338 299 275 260 216 226 201 259 250 177 217 210 224 256 272 299 295 134 137 262 136 190 135 167 181 243 289 90 153 154 168 183 147 148
352 355 355 352 344 345 345 340 340 2 6 151 111 301 267 252 221 218 218 215 193 205 232 241 236 251 281 274 4 218 179 95 161 166 148 207 212 257 221 134 158 175 175 144 152
346 347 346 338 330 330 335 321 316 303 329 261 244 300 242 229 238 185 201 208 197 205 225 239 320 237 262 249 227 232 192 204 170 168 163 150 190 253 217 196 302 299 159 154 141
342 337 334 332 319 320 326 331 342 225 235 223 255 249 310 186 185 202 193 215 201 217 204 197 172 228 229 234 231 268 119 130 101 42 235 186 144 188 229 189 292 342 159 137 155
335 326 329 328 312 315 319 313 330 322 305 298 264 262 286 136 166 195 191 217 186 217 208 248 216 236 239 252 269 130 318 69 78 80 300 196 163 181 186 220 256 177 115 140 160
332 324 323 325 302 292 293 286 0 328 298 283 229 247 253 170 204 202 181 206 184 231 217 215 238 217 238 255 155 284 128 161 126 147 35 25 134 192 236 197 186 172 154 143 158
331 323 317 321 306 297 290 318 346 332 299 232 194 227 228 229 236 190 195 210 190 216 236 227 250 220 227 243 195 71 119 129 135 143 117 80 239 219 207 232 211 194 180 176 168
330 319 313 308 290 299 356 2 319 306 320 152 156 140 186 222 245 166 204 232 265 232 190 247 240 239 203 231 178 130 155 134 123 93 118 167 290 222 186 218 218 202 196 186 192
324 311 296 290 265 341 315 322 311 346 256 262 145 183 241 211 257 158 193 236 264 284 248 246 256 243 202 216 187 184 120 124 133 145 195 155 189 226 193 209 208 196 201 205 192
317 299 277 262 251 305 331 294 309 238 249 252 158 165 214 259 264 159 183 230 240 246 267 260 257 252 111 81 305 219 132 140 264 263 255 168 171 244 222 217 202 192 190 194 199
310 291 269 260 211 298 319 307 88 234 268 74 55 62 76 79 309 258 187 223 247 256 221 215 279 114 120 204 214 202 172 177 73 332 290 251 195 331 26 126 203 211 199 195 202
308 291 276 183 198 225 316 280 273 272 50 92 75 71 47 70 253 280 199 226 237 235 197 306 251 209 201 182 195 230 146 233 132 209 156 174 126 301 69 44 46 14 222 199 204
304 280 275 162 176 192 277 256 259 269 45 91 113 97 83 258 234 334 218 218 246 247 109 277 264 259 208 161 265 213 240 4 318 190 232 171 125 198 105 186 39 344 304 225 196
331 316 145 165 178 224 250 261 203 88 7 52 84 153 209 190 30 299 348 308 351 301 77 354 29 303 173 181 192 269 292 287 156 150 191 163 268 184 166 185 132 277 255 276 195
332 293 164 159 201 232 245 319 360 41 329 137 137 234 91 60 80 326 9 206 323 7 17 345 300 308 252 162 218 214 228 203 131 287 257 164 240 145 163 187 186 211 211 216 207
328 281 165 177 250 260 270 303 30 8 7 15 84 139 198 147 123 163 98 284 303 40 33 331 339 347 352 7 15 326 321 289 215 229 270 57 241 79 94 65 43 357 278 231 213
327 284 178 208 243 267 284 165 106 26 344 10 345 343 34 37 26 124 245 254 334 49 355 347 23 104 148 254 239 323 331 336 326 60 240 15 110 70 89 43 5 353 16 317 230
247 284 321 236 232 250 37 69 105 151 186 319 160 312 56 87 53 346 328 353 342 50 339 40 21 26 176 226 354 299 320 316 332 258 114 172 74 148 152 102 212 60 53 11 168
291 330 332 298 341 303 127 95 123 54 24 29 34 62 92 108 43 50 119 317 320 319 320 312 319 24 336 328 255 264 296 348 338 356 84 95 87 154 105 85 77 66 60 34 3
309 320 339 300 311 264 310 311 108 53 81 52 14 20 42 3 6 347 319 309 191 226 359 38 35 43 305 341 264 198 335 26 356 29 96 64 78 75 75 73 87 77 103 137 228
Wind_Speed_850mb
26 28 27 24 21 17 16 15 14 13 12 13 14 15 17 18 22 29 35 17 21 17 11 20 26 21 17 19 11 18 7 13 21 25 27 32 22 34 45 59 51 36 55 76 68
25 26 27 25 22 18 16 15 13 12 12 12 13 15 16 18 24 40 26 26 28 14 19 27 25 20 38 21 17 8 5 6 12 8 10 25 41 32 34 18 55 62 68 66 75
27 28 29 26 23 20 15 14 12 11 11 11 12 13 14 17 21 18 15 33 26 25 21 25 30 25 32 20 12 11 13 10 24 32 38 16 34 17 57 36 67 59 75 67 65
26 29 29 26 22 21 17 14 12 11 11 10 11 11 12 11 1 8 6 22 22 20 29 33 36 42 31 17 33 23 37 48 17 35 27 8 13 11 31 64 71 62 67 62 60
25 26 26 23 21 19 18 15 11 11 11 10 10 10 10 9 22 8 15 14 31 28 35 32 32 39 24 5 19 16 45 53 32 38 29 35 33 13 57 68 59 63 55 56 50
23 25 24 21 19 18 19 17 14 11 11 11 9 9 10 10 6 18 18 18 32 34 39 31 26 34 28 7 28 16 54 54 47 27 13 16 9 17 41 68 55 48 46 54 59
22 23 22 19 16 17 17 17 14 11 10 10 9 11 17 33 5 15 15 12 26 28 31 24 30 37 31 4 31 15 41 25 20 13 10 15 9 11 27 57 58 44 43 60 55
21 22 22 17 16 17 16 15 14 10 6 2 2 8 18 11 23 12 20 6 22 19 29 26 25 33 23 23 6 19 13 12 13 22 12 2 7 9 14 43 53 50 46 64 63
19 20 20 15 15 16 17 15 12 12 6 3 6 8 19 9 25 23 29 25 14 24 26 29 33 33 24 9 9 7 9 8 20 23 14 9 7 21 6 24 35 50 41 67 57
17 17 18 15 15 17 20 18 15 10 4 6 10 17 21 33 20 29 31 29 31 29 33 33 5 4 7 5 10 17 13 10 17 13 16 15 12 13 16 7 3 13 52 56 68
18 17 18 17 16 20 22 22 11 1 16 22 12 25 31 6 18 20 23 27 29 23 12 17 5 14 22 27 28 12 15 14 15 21 8 15 13 26 23 9 9 12 53 48 63
17 17 18 18 15 16 21 21 28 31 22 48 39 39 45 30 11 22 27 19 19 14 20 9 18 24 27 32 22 11 5 14 17 18 10 10 12 13 15 8 20 16 45 42 30
18 18 18 18 12 11 18 15 15 26 16 27 33 25 22 15 18 29 35 37 17 17 18 17 25 33 33 27 2 18 3 17 15 7 3 16 7 12 14 12 18 28 28 45 40
21 20 18 17 12 15 28 28 20 24 6 8 21 17 34 17 24 38 33 33 15 21 24 19 40 27 26 18 13 10 33 34 36 17 8 5 2 15 15 26 21 30 36 38 47
25 21 17 16 20 19 22 23 20 20 7 12 9 17 17 24 15 35 28 42 25 16 13 23 22 20 24 29 14 20 17 30 20 10 19 9 14 9 30 37 35 38 50 58 53
30 23 14 19 17 10 23 25 28 5 8 9 18 11 12 28 35 36 24 32 35 23 17 22 37 15 18 25 21 20 29 32 18 6 4 25 19 9 27 57 48 50 58 65 64
30 23 16 20 13 12 18 26 4 5 6 8 9 18 20 9 16 21 18 16 12 5 13 21 23 17 8 8 7 17 35 8 5 4 5 17 20 25 46 38 48 48 63 80 80
26 19 18 13 12 7 22 5 3 14 22 30 33 20 11 9 21 21 16 18 24 22 11 11 13 2 8 9 16 16 14 8 9 1 10 8 12 14 6 2 29 52 57 71 87
17 16 17 11 18 6 17 4 6 8 24 25 16 9 8 19 17 13 17 20 23 25 8 7 18 11 17 11 9 8 10 21 15 10 3 6 2 7 36 26 48 17 41 64 80
15 11 22 9 11 8 6 11 13 10 20 7 7 10 4 18 13 9 14 23 28 21 13 9 11 11 18 18 19 7 7 7 4 8 8 1 9 10 5 10 5 23 40 53 74
14 10 17 24 11 17 8 18 4 18 7 8 7 3 9 4 22 23 20 32 8 9 19 13 6 15 11 12 15 5 9 5 5 5 10 5 6 14 18 20 22 29 22 38 70
8 7 31 26 16 17 10 11 13 8 8 8 11 4 3 12 11 3 9 4 63 37 10 12 6 10 8 3 14 15 14 15 9 16 5 8 6 16 28 42 45 42 51 59 65
19 17 23 22 8 13 16 7 16 20 16 19 7 7 8 8 9 12 4 20 35 15 6 10 10 8 23 8 14 6 14 10 9 5 11 1 4 11 9 19 19 20 30 41 58
10 6 17 30 43 27 19 1 10 12 12 12 15 21 15 17 9 6 4 10 10 16 22 8 5 6 14 17 7 16 30 29 10 1 7 7 10 5 13 4 24 33 26 33 52
7 12 33 10 14 24 9 10 14 8 3 8 2 14 7 9 15 7 9 9 28 8 13 8 6 10 11 7 6 19 27 35 17 15 8 13 11 11 2 19 6 44 46 32 64
9 29 36 37 8 15 7 8 10 15 20 13 11 12 15 10 3 12 8 1 5 13 9 6 4 13 14 8 4 9 25 27 31 25 30 31 15 11 12 19 36 39 46 44 20
13 27 14 27 13 5 2 12 15 9 5 18 19 15 21 20 22 20 31 35 20 7 7 7 7 8 9 18 7 3 11 20 38 23 18 13 8 20 24 33 39 39 36 35 14
Wind_Direction_850mb
354 351 346 341 333 323 311 301 298 299 296 287 287 284 282 279 269 259 243 213 210 225 205 166 171 188 204 208 150 113 50 333 329 75 144 138 107 114 115 135 131 127 137 137 137
354 352 347 341 337 329 316 310 305 300 301 291 282 283 287 285 275 261 252 205 222 231 204 179 212 226 223 218 183 94 79 240 276 296 162 125 122 147 114 187 128 135 124 130 140
353 353 349 344 339 337 328 324 311 304 301 295 282 282 288 290 301 266 259 217 202 227 214 197 221 222 224 215 158 106 174 187 297 297 288 104 153 179 144 133 139 146 132 144 150
356 353 351 349 346 346 343 334 319 307 300 294 283 279 279 276 2 315 301 195 200 222 201 205 244 251 235 191 219 142 204 183 207 274 274 341 119 14 146 132 137 141 143 150 145
358 358 356 357 358 356 352 344 330 310 299 289 277 269 269 272 261 283 319 234 215 216 195 200 243 245 246 198 48 135 168 180 170 208 109 99 43 65 118 127 139 147 146 153 155
359 1 1 3 10 13 5 355 336 317 298 285 269 246 230 255 297 294 289 240 219 208 195 203 237 243 278 117 89 238 174 182 180 129 99 91 41 107 126 132 139 156 161 152 148
359 2 0 5 13 9 6 5 359 342 316 295 278 246 238 229 180 315 320 243 212 204 196 203 239 263 300 27 149 121 134 112 133 103 111 87 19 90 134 139 149 164 169 148 146
356 -0 360 2 359 359 357 359 7 2 351 338 299 275 260 216 226 201 259 250 177 217 210 224 256 272 299 295 134 137 262 136 190 135 167 181 243 289 90 153 154 168 183 147 148
352 355 355 352 344 345 345 340 340 2 6 151 111 301 267 252 221 218 218 215 193 205 232 241 236 251 281 274 4 218 179 95 161 166 148 207 212 257 221 134 158 175 175 144 152
346 347 346 338 330 330 335 321 316 303 329 261 244 300 242 229 238 185 201 208 197 205 225 239 320 237 262 249 227 232 192 204 170 168 163 150 190 253 217 196 302 299 159 154 141
342 337 334 332 319 320 326 331 342 225 235 223 255 249 310 186 185 202 193 215 201 217 204 197 172 228 229 234 231 268 119 130 101 42 235 186 144 188 229 189 292 342 159 137 155
335 326 329 328 312 315 319 313 330 322 305 298 264 262 286 136 166 195 191 217 186 217 208 248 216 236 239 252 269 130 318 69 78 80 300 196 163 181 186 220 256 177 115 140 160
332 324 323 325 302 292 293 286 0 328 298 283 229 247 253 170 204 202 181 206 184 231 217 215 238 217 238 255 155 284 128 161 126 147 35 25 134 192 236 197 186 172 154 143 158
331 323 317 321 306 297 290 318 346 332 299 232 194 227 228 229 236 190 195 210 190 216 236 227 250 220 227 243 195 71 119 129 135 143 117 80 239 219 207 232 211 194 180 176 168
330 319 313 308 290 299 356 2 319 306 320 152 156 140 186 222 245 166 204 232 265 232 190 247 240 239 203 231 178 130 155 134 123 93 118 167 290 222 186 218 218 202 196 186 192
324 311 296 290 265 341 315 322 311 346 256 262 145 183 241 211 257 158 193 236 264 284 248 246 256 243 202 216 187 184 120 124 133 145 195 155 189 226 193 209 208 196 201 205 192
317 299 277 262 251 305 331 294 309 238 249 252 158 165 214 259 264 159 183 230 240 246 267 260 257 252 111 81 305 219 132 140 264 263 255 168 171 244 222 217 202 192 190 194 199
310 291 269 260 211 298 319 307 88 234 268 74 55 62 76 79 309 258 187 223 247 256 221 215 279 114 120 204 214 202 172 177 73 332 290 251 195 331 26 126 203 211 199 195 202
308 291 276 183 198 225 316 280 273 272 50 92 75 71 47 70 253 280 199 226 237 235 197 306 251 209 201 182 195 230 146 233 132 209 156 174 126 301 69 44 46 14 222 199 204
304 280 275 162 176 192 277 256 259 269 45 91 113 97 83 258 234 334 218 218 246 247 109 277 264 259 208 161 265 213 240 4 318 190 232 171 125 198 105 186 39 344 304 225 196
331 316 145 165 178 224 250 261 203 88 7 52 84 153 209 190 30 299 348 308 351 301 77 354 29 303 173 181 192 269 292 287 156 150 191 163 268 184 166 185 132 277 255 276 195
332 293 164 159 201 232 245 319 360 41 329 137 137 234 91 60 80 326 9 206 323 7 17 345 300 308 252 162 218 214 228 203 131 287 257 164 240 145 163 187 186 211 211 216 207
328 281 165 177 250 260 270 303 30 8 7 15 84 139 198 147 123 163 98 284 303 40 33 331 339 347 352 7 15 326 321 289 215 229 270 57 241 79 94 65 43 357 278 231 213
327 284 178 208 243 267 284 165 106 26 344 10 345 343 34 37 26 124 245 254 334 49 355 347 23 104 148 254 239 323 331 336 326 60 240 15 110 70 89 43 5 353 16 317 230
247 284 321 236 232 250 37 69 105 151 186 319 160 312 56 87 53 346 328 353 342 50 339 40 21 26 176 226 354 299 320 316 332 258 114 172 74 148 152 102 212 60 53 11 168
291 330 332 298 341 303 127 95 123 54 24 29 34 62 92 108 43 50 119 317 320 319 320 312 319 24 336 328 255 264 296 348 338 356 84 95 87 154 105 85 77 66 60 34 3
309 320 339 300 311 264 310 311 108 53 81 52 14 20 42 3 6 347 319 309 191 226 359 38 35 43 305 341 264 198 335 26 356 29 96 64 78 75 75 73 87 77 103 137 228